(654) Zelinda

Orbital Elements

The following orbital elements are taken from MPC 24086:
  (654) Zelinda
Epoch 2002 May 6.0 TT = JDT 2452400.5    (M-c)          Goffin
M  19.47926              (2000.0)            P               Q
n   0.28320545     Peri.  213.91440     -0.64856829     -0.69626642
a   2.2965098      Node   278.61211     +0.74898513     -0.51182631
e   0.2318620      Incl.   18.12149     +0.13557449     -0.50323643
P   3.48           H    8.52          G   0.15
From 321 observations at 42 oppositions, 1908-1993, mean residual 0".91.
An explanation of the orbital elements is available.

These orbital elements are also available in forms suitable for loading into a number of popular planetarium-type software programs.


Ephemeris

The following ephemeris is at intervals of five days. A daily ephemeris covering the same time interval is also available.

Date    TT    R. A. (2000) Decl.     Delta      r     Elong.  Phase     V
2001 12 07    07 56.47   +22 32.9    0.978    1.833   138.2    21.0    10.8
2001 12 12    07 54.56   +21 21.9    0.938    1.825   143.5    18.7    10.6
2001 12 17    07 51.49   +20 07.4    0.902    1.818   149.0    16.2    10.5
2001 12 22    07 47.34   +18 49.8    0.872    1.811   154.8    13.4    10.3
2001 12 27    07 42.25   +17 29.6    0.847    1.804   160.6    10.5    10.1
2002 01 01    07 36.40   +16 07.7    0.828    1.798   166.1     7.6     9.9
2002 01 06    07 30.02   +14 45.3    0.815    1.792   170.5     5.2     9.8
2002 01 11    07 23.40   +13 24.0    0.809    1.787   171.4     4.7     9.7
2002 01 16    07 16.83   +12 05.4    0.809    1.783   168.0     6.6     9.8
2002 01 21    07 10.62   +10 51.0    0.815    1.778   162.7     9.5    10.0
2002 01 26    07 05.04   +09 42.2    0.827    1.775   156.9    12.6    10.1
2002 01 31    07 00.32   +08 39.9    0.844    1.772   151.1    15.6    10.2
2002 02 05    06 56.58   +07 44.5    0.866    1.769   145.5    18.4    10.4
2002 02 10    06 53.94   +06 56.0    0.893    1.767   140.1    21.0    10.5
2002 02 15    06 52.44   +06 14.3    0.923    1.765   135.0    23.3    10.7
2002 02 20    06 52.10   +05 38.7    0.957    1.764   130.1    25.4    10.8
2002 02 25    06 52.87   +05 08.4    0.994    1.764   125.6    27.1    11.0
2002 03 02    06 54.70   +04 42.4    1.033    1.764   121.3    28.7    11.1
2002 03 07    06 57.50   +04 20.1    1.074    1.765   117.3    30.0    11.2
2002 03 12    07 01.22   +04 00.6    1.116    1.766   113.5    31.0    11.3
2002 03 17    07 05.78   +03 43.1    1.160    1.768   110.0    31.9    11.4
2002 03 22    07 11.11   +03 26.9    1.205    1.770   106.6    32.6    11.5
2002 03 27    07 17.12   +03 11.2    1.251    1.773   103.5    33.2    11.6
2002 04 01    07 23.74   +02 55.6    1.298    1.777   100.5    33.6    11.7
2002 04 06    07 30.90   +02 39.7    1.346    1.780    97.6    33.9    11.8

Back to Bright Minor Planets

Astronomical Headlines Index

MPC